RH
20 10 16 19 21 21 28 27 27 30 30 34 29 41 62 76 69 58 60 53 46 39 44 46 40 32 31 27 24 13 9 7 9 10 9 9 8 9 9 11 11 13 13 11 8 8 10 13 13
27 10 18 24 20 27 30 30 27 25 25 33 35 45 90 90 76 63 68 64 61 57 55 51 44 32 31 30 22 14 5 4 8 11 10 9 9 9 10 11 11 11 9 7 5 10 12 16 12
34 17 12 24 23 28 29 27 23 22 19 21 31 47 86 96 83 62 75 80 68 61 58 53 45 31 30 24 19 16 7 6 10 12 11 11 10 9 9 10 11 10 9 7 6 13 17 15 14
40 29 12 16 25 33 34 29 24 22 20 19 22 71 87 79 76 66 80 76 66 60 58 52 45 30 29 20 18 15 8 9 11 12 12 11 12 11 9 8 9 9 8 6 7 15 18 17 16
37 38 20 12 21 32 34 28 25 23 20 15 16 46 72 74 70 73 75 74 65 58 53 49 47 31 28 22 17 17 11 7 11 12 13 14 12 11 10 7 8 8 6 4 7 16 19 20 18
16 36 30 15 11 22 30 31 28 25 18 16 23 32 60 55 67 74 72 72 68 55 50 46 44 37 28 28 20 19 20 12 6 6 9 11 9 10 9 8 8 8 7 6 7 12 20 23 20
13 30 36 25 9 15 25 28 28 22 16 22 30 39 48 47 66 64 70 74 68 51 49 46 42 39 35 29 29 24 23 21 10 7 6 6 8 9 9 10 12 12 13 14 13 12 12 16 21
14 17 35 28 10 11 19 24 24 20 17 30 70 78 54 43 57 54 65 71 62 39 39 46 42 39 38 38 32 31 26 25 21 8 6 7 8 9 10 12 13 14 15 15 15 14 12 12 14
18 14 30 34 16 11 15 19 24 23 27 86 83 74 65 50 56 59 65 69 46 40 36 35 48 41 36 38 39 35 31 28 30 26 12 6 8 9 10 11 12 12 12 12 11 11 12 14 19
21 15 24 39 30 15 14 17 23 28 26 61 88 90 71 66 63 72 75 63 43 43 35 30 43 46 39 36 40 38 34 30 29 31 28 25 21 19 19 19 19 19 17 16 16 14 16 22 25
23 18 23 31 36 25 17 16 23 31 32 60 64 59 62 62 66 74 66 58 45 40 34 30 33 48 41 35 35 39 35 30 28 26 25 22 22 22 22 21 21 21 22 22 22 22 23 22 22
22 22 25 27 29 32 13 15 27 31 36 52 70 53 70 70 65 67 56 63 48 36 31 30 30 36 46 40 32 34 32 25 24 25 25 26 27 27 27 28 28 29 28 28 28 28 27 26 25
24 26 25 26 24 37 20 12 22 30 37 42 65 52 63 76 73 65 63 61 50 39 30 26 27 29 37 39 32 31 32 30 28 27 27 27 27 28 29 30 29 21 19 18 16 14 14 14 14
28 29 23 22 31 32 35 14 20 34 37 40 50 58 72 71 58 50 49 52 49 41 28 22 25 29 35 37 34 33 34 33 30 28 27 27 26 26 24 18 11 10 9 10 10 10 9 8 8
27 26 21 23 36 29 32 23 16 33 28 41 48 63 58 55 48 43 45 49 47 43 31 22 25 30 36 36 34 30 27 27 25 23 22 21 17 12 6 3 4 5 5 6 6 7 7 7 7
28 25 21 27 33 34 27 30 18 32 35 45 48 54 49 45 44 45 46 46 46 42 34 25 26 35 37 33 32 32 29 24 18 13 7 2 1 2 3 4 4 4 4 4 3 3 3 4 4
32 21 23 31 29 30 28 40 22 31 36 38 47 48 45 42 48 53 55 52 47 42 31 37 37 39 34 34 33 29 19 10 6 2 1 1 1 1 2 5 10 12 16 19 19 20 19 21 25
34 20 27 36 31 29 41 46 20 33 36 36 38 43 42 49 51 47 34 40 50 50 37 52 40 31 34 34 30 22 9 2 1 2 2 4 8 14 20 22 24 24 27 30 31 31 31 31 32
33 25 30 35 28 29 35 36 16 37 33 30 36 45 48 47 44 23 11 37 65 68 56 39 34 35 35 31 25 13 2 1 4 6 9 16 23 24 25 28 32 33 34 32 29 24 21 19 17
35 25 30 32 25 30 37 36 18 40 43 48 51 48 37 18 9 30 42 54 64 55 44 38 37 35 32 22 11 1 6 8 11 16 25 29 33 36 36 34 30 23 19 15 14 13 14 15 17
36 29 31 32 29 33 41 40 12 36 43 50 53 25 11 11 18 36 46 54 54 46 41 37 35 29 14 4 3 9 12 20 28 32 36 39 37 33 27 21 17 16 16 16 14 11 8 7 6
37 44 39 33 29 34 30 38 17 20 44 57 50 26 18 27 38 40 47 50 45 38 38 35 24 11 4 8 10 23 32 37 42 43 40 35 28 21 19 18 15 9 7 6 7 8 8 8 8
53 58 50 36 31 30 39 40 25 16 41 53 39 24 25 32 44 46 44 42 41 36 33 23 7 4 8 21 33 36 43 46 43 36 27 20 18 14 7 5 6 7 8 8 9 9 10 9 9
66 60 70 44 38 26 37 32 35 16 23 27 25 22 25 27 32 31 33 36 36 33 21 6 5 11 24 31 37 41 41 36 28 23 21 12 8 8 9 10 10 11 11 11 12 12 13 14 13
65 87 80 57 38 23 32 33 35 20 18 20 22 25 23 19 21 24 25 30 30 21 10 7 20 29 37 44 46 39 29 23 25 23 13 10 10 12 12 14 15 16 16 16 16 16 15 12 10
59 77 54 42 34 26 27 27 40 28 13 18 22 20 22 21 19 20 24 24 19 12 11 23 39 47 50 46 35 25 27 23 12 10 10 10 11 13 16 18 19 19 19 18 15 12 10 9 9
85 75 71 57 38 25 26 37 41 36 15 11 15 16 19 19 15 16 15 13 14 24 38 48 49 46 35 26 28 29 15 10 10 13 15 15 16 18 20 21 21 19 16 14 12 12 12 11 10
64 96 69 50 42 30 26 30 33 23 11 9 12 14 13 13 14 14 16 24 44 48 46 44 35 28 28 31 28 14 14 17 18 17 16 19 20 21 21 19 18 17 16 15 13 12 10 9 9
52 44 43 47 40 33 30 30 20 4 5 10 13 13 12 13 16 24 42 50 44 40 35 33 33 31 26 16 18 20 18 16 17 19 19 20 21 20 20 19 17 15 14 12 11 10 8 7 6
57 54 56 47 51 46 33 20 4 4 10 18 21 19 21 31 45 53 45 37 35 34 37 34 20 17 23 22 21 20 23 24 24 23 23 22 22 20 16 16 15 13 11 10 8 7 5 5 5
Wind_Speed
24 21 20 20 18 13 15 19 23 25 25 24 21 16 14 16 12 12 12 11 13 15 14 12 13 12 12 13 13 13 14 15 14 13 11 13 11 11 12 14 13 14 16 16 15 13 14 15 18
25 22 22 20 15 13 16 18 17 23 27 23 23 17 14 12 15 14 11 11 12 12 11 11 12 13 13 14 14 13 12 15 16 14 12 13 13 13 12 14 14 16 17 18 16 15 15 17 21
26 22 22 21 18 15 17 18 21 20 25 24 22 18 13 14 15 15 12 9 11 11 11 11 12 13 14 14 14 13 12 13 15 15 13 15 15 12 14 17 17 18 18 18 16 15 15 17 20
27 25 21 22 20 19 19 23 18 19 23 24 21 19 14 15 17 17 13 9 10 12 11 11 13 13 14 14 13 12 13 14 16 16 14 16 16 15 14 17 20 19 19 19 17 17 16 16 17
28 26 20 21 23 24 24 22 20 19 20 21 19 23 17 17 20 19 13 10 10 12 12 11 13 13 14 14 14 13 11 16 18 19 18 18 18 17 16 17 19 20 20 19 18 19 19 17 17
29 29 23 21 24 27 25 22 21 19 20 20 19 24 18 19 20 20 14 11 12 12 13 12 14 13 14 16 15 15 14 14 17 21 22 21 19 19 17 17 19 19 18 18 19 21 21 21 21
28 29 26 23 25 26 23 20 19 18 20 22 18 18 20 20 19 21 13 12 13 13 13 13 13 14 14 16 17 17 17 18 17 19 21 20 20 20 19 19 20 20 19 19 21 23 24 25 26
28 29 28 26 25 24 23 19 16 17 21 20 15 15 18 18 19 20 15 12 13 13 13 13 14 15 15 16 18 19 20 20 20 19 19 20 20 20 20 22 23 24 25 24 25 27 27 28 29
31 28 27 27 24 23 23 20 16 15 19 13 16 16 17 19 19 19 15 14 12 12 14 13 15 15 16 18 19 22 23 24 23 23 22 22 22 24 25 26 29 31 31 31 29 31 32 31 32
33 27 27 31 26 24 22 20 16 13 18 19 13 14 18 18 18 14 13 14 13 15 15 14 15 16 16 19 20 23 25 26 27 25 26 25 26 27 28 30 32 34 34 34 34 35 36 39 41
31 26 30 32 30 25 21 21 15 13 13 20 14 15 14 18 15 15 16 15 16 16 17 16 16 17 18 19 20 22 25 26 26 27 28 28 29 31 32 34 35 36 37 38 40 42 44 45 46
31 30 29 30 32 24 23 21 17 12 15 22 21 17 14 14 15 17 19 18 17 19 17 17 18 18 19 20 21 21 23 25 26 27 28 29 31 33 35 36 38 41 43 45 46 47 48 49 50
31 30 32 32 30 25 22 22 21 13 16 21 25 19 15 13 15 18 18 20 20 21 21 21 21 19 18 20 20 20 22 23 25 28 29 31 34 36 39 41 44 47 46 45 44 44 44 45 45
32 35 36 30 28 26 24 22 18 14 20 21 20 17 11 13 13 15 17 20 21 23 23 21 22 21 20 19 19 21 23 25 27 29 31 34 38 42 45 46 45 44 42 40 40 41 41 42 43
37 36 33 28 27 30 27 18 21 23 21 17 16 17 16 15 16 18 20 24 25 27 25 22 23 22 20 19 20 22 25 28 31 33 36 39 44 46 45 43 41 41 40 39 39 39 41 42 43
37 33 30 28 33 30 25 14 26 21 19 20 18 20 19 17 19 21 23 28 29 29 28 26 23 23 22 22 23 27 30 32 34 36 38 38 38 37 34 34 35 36 37 38 38 39 39 39 41
38 31 30 31 33 27 25 16 20 20 21 22 22 22 20 20 20 19 23 25 29 30 28 25 21 22 22 24 28 31 34 36 36 36 34 33 33 32 31 31 32 32 33 35 37 38 41 42 43
31 30 29 32 30 27 23 18 20 17 18 21 21 23 20 19 21 25 27 26 26 26 30 20 21 24 25 28 31 34 36 36 35 33 31 30 30 30 29 31 34 36 37 39 41 43 45 46 48
33 37 31 33 33 25 24 21 20 18 15 18 18 19 18 22 26 28 25 23 22 21 22 21 24 28 31 34 35 36 36 34 32 31 29 29 31 33 35 36 38 40 41 44 46 48 50 52 56
36 34 30 31 30 25 23 19 20 18 17 17 18 19 22 24 22 22 22 22 20 21 23 25 29 33 36 38 36 33 29 27 28 30 32 33 35 37 38 41 43 45 48 50 52 55 55 56 56
32 30 27 29 29 23 24 21 21 21 21 20 18 19 19 18 18 22 23 22 21 23 26 28 32 36 37 34 29 26 26 28 30 33 35 37 39 41 44 47 49 50 50 51 53 55 58 58 59
30 25 29 29 27 23 24 22 19 21 23 22 20 19 17 16 17 23 24 24 24 24 29 33 34 34 30 28 28 29 30 32 35 36 39 42 45 46 46 46 47 50 53 55 57 58 60 61 61
22 27 27 29 26 25 20 22 14 22 24 24 23 19 17 17 19 22 25 27 29 29 31 34 34 30 29 29 31 33 35 36 38 41 43 44 43 44 46 49 52 55 58 59 61 62 64 68 71
30 30 28 30 29 29 20 23 13 21 23 23 22 21 20 20 22 24 26 30 33 32 32 33 31 31 32 35 36 37 39 41 42 42 41 43 47 50 53 56 60 64 67 69 70 72 74 76 78
33 32 28 28 27 21 23 26 14 20 22 21 21 21 21 22 25 26 29 32 35 34 33 31 32 35 37 39 40 41 41 41 40 41 45 49 52 56 60 64 68 71 72 73 75 77 80 81 82
32 29 23 25 24 23 23 23 19 21 23 23 23 22 25 26 27 29 30 32 35 35 32 34 38 40 41 42 42 41 39 40 44 48 52 55 60 64 67 70 71 73 75 77 78 80 82 84 89
31 34 28 25 26 24 24 22 21 22 25 26 26 27 30 28 28 26 29 32 34 34 37 39 41 41 41 40 39 40 43 47 52 56 61 65 69 72 73 74 75 77 79 82 85 88 92 96 100
37 30 31 30 28 25 23 22 22 24 25 25 27 30 29 28 26 28 31 34 36 37 39 40 39 38 39 40 41 45 49 53 57 61 65 69 72 75 77 79 81 85 88 90 93 96 98 101 105
35 32 30 29 29 26 24 24 21 22 24 26 26 27 27 26 26 29 32 34 37 39 36 35 37 38 39 41 45 48 51 55 60 64 68 72 75 78 80 82 84 86 90 94 98 103 105 107 108
37 33 30 32 30 26 25 21 19 21 23 24 23 23 24 25 28 31 32 34 37 36 34 36 37 39 42 45 50 53 57 61 64 69 72 74 76 78 79 83 87 91 97 101 105 107 108 107 102
Wind_Direction
240 231 228 226 222 224 229 234 237 243 242 243 243 232 238 233 238 247 258 264 269 272 289 284 278 273 267 256 260 262 252 236 234 233 242 257 260 261 271 273 277 289 291 297 304 304 311 312 313
241 234 228 227 228 230 237 243 243 249 252 245 248 232 224 222 236 242 257 270 285 292 294 284 278 268 263 259 263 269 254 234 231 236 244 261 264 261 271 276 280 280 288 296 297 304 298 309 314
239 241 234 229 226 227 240 247 245 249 257 250 248 237 226 224 233 239 255 283 287 298 293 281 278 267 261 262 264 270 256 236 233 244 250 265 275 270 267 269 273 281 291 297 289 295 296 309 309
234 237 239 233 232 229 236 245 255 258 259 255 243 228 220 238 232 238 253 281 294 295 289 277 277 269 260 263 267 271 259 246 245 247 255 265 279 287 275 267 271 281 287 290 281 291 289 301 306
227 234 239 237 235 235 237 248 258 265 260 257 245 231 244 230 230 242 257 279 291 294 291 277 274 273 262 265 266 265 274 258 256 255 255 264 272 279 275 268 272 278 284 285 282 291 285 293 300
224 227 232 239 237 239 243 252 265 277 259 243 240 227 234 227 230 239 254 277 292 297 296 284 273 274 263 262 269 267 266 277 264 259 260 262 270 273 271 271 275 281 287 288 287 287 286 286 292
226 224 227 236 238 241 245 255 272 277 256 242 234 236 233 230 239 243 257 272 288 295 297 288 276 270 268 262 266 273 274 276 281 269 264 261 265 267 274 274 276 281 281 283 286 289 291 288 287
227 221 223 230 238 240 246 253 266 263 253 237 242 252 242 235 244 252 266 268 282 294 296 290 285 274 271 269 263 267 271 272 275 276 269 266 266 269 272 273 277 280 280 279 281 284 287 290 292
225 222 222 231 239 241 245 249 260 263 242 227 246 252 247 248 251 259 266 268 281 295 302 291 288 282 274 272 268 263 265 266 268 271 272 270 271 272 275 278 279 280 282 284 283 285 287 287 290
223 221 223 231 238 240 243 249 260 265 252 239 250 252 256 258 257 247 252 260 279 293 304 301 291 290 282 278 273 266 264 264 265 270 274 274 274 276 279 282 284 286 288 289 291 288 287 289 290
222 217 228 230 234 238 244 249 253 265 256 223 231 244 244 254 248 240 250 259 276 292 300 308 296 293 291 282 275 268 266 268 272 272 272 275 278 280 282 284 285 287 289 289 286 286 287 288 290
224 221 230 233 231 235 243 251 256 247 242 232 235 246 242 246 249 251 259 263 276 284 298 301 308 300 298 294 286 280 276 274 274 275 276 279 282 283 284 286 287 288 287 286 284 284 285 288 290
221 222 225 228 231 230 240 248 254 241 231 236 232 250 250 252 252 261 257 261 269 283 295 300 303 304 294 290 289 287 284 282 283 283 286 286 286 287 287 287 289 291 290 289 288 289 290 289 289
218 221 222 224 236 230 233 243 253 241 231 238 237 251 253 244 250 259 263 265 271 282 294 299 298 296 292 287 285 289 292 292 292 292 294 293 290 289 289 290 293 292 291 289 287 287 288 289 290
216 218 219 220 231 234 229 235 248 227 242 234 237 242 241 242 259 274 278 279 278 281 290 294 289 289 286 287 288 290 295 297 297 295 292 290 289 289 289 291 290 289 289 289 288 288 289 289 290
218 215 214 220 225 232 225 218 238 250 241 234 236 241 251 257 267 272 278 284 288 288 292 286 280 282 283 291 296 301 305 302 299 296 295 293 292 290 291 290 288 289 292 294 294 293 294 294 293
218 210 210 218 224 230 225 224 242 244 240 240 243 249 250 269 270 276 282 284 283 286 287 273 273 279 291 299 302 302 303 302 301 299 296 294 294 295 296 296 297 297 296 295 295 295 295 294 293
215 212 211 219 226 223 226 228 239 244 246 246 246 251 255 256 266 276 276 272 274 276 282 271 278 289 293 292 295 297 298 298 298 297 296 297 297 297 297 295 294 293 292 291 291 291 291 291 290
213 214 213 216 226 222 221 225 231 232 233 238 241 247 258 267 277 279 265 265 265 266 264 270 277 281 285 290 293 294 294 294 294 294 294 295 296 297 296 295 292 292 293 293 294 295 295 296 295
213 214 217 224 228 223 219 221 237 227 224 231 250 263 267 273 269 266 265 260 258 261 266 273 278 284 288 291 292 293 293 292 293 293 293 294 293 293 293 294 295 295 296 297 298 298 299 299 300
210 214 220 228 227 223 221 213 226 230 231 242 255 268 266 268 263 264 269 265 264 268 272 277 282 287 290 289 287 286 289 290 289 289 289 290 292 294 296 298 300 302 303 303 303 303 302 301 299
206 215 219 227 232 227 225 212 225 228 237 244 254 266 269 262 261 265 269 266 264 270 278 284 289 291 288 285 286 287 287 287 288 290 292 295 297 299 301 302 302 302 302 300 300 299 298 298 297
202 222 226 228 233 226 227 233 207 235 236 241 248 256 259 259 262 267 269 271 273 277 284 291 291 290 288 286 286 285 286 287 289 291 294 299 301 301 301 300 300 301 301 300 299 298 298 298 298
210 226 231 225 233 228 231 245 220 237 240 247 250 252 255 256 260 269 273 277 279 284 289 289 289 286 284 283 284 287 290 292 294 298 302 303 305 305 305 305 305 305 305 303 302 301 300 299 298
215 218 224 229 234 233 238 241 229 245 241 248 251 258 263 266 269 272 275 279 283 286 289 289 286 284 283 285 288 291 294 299 302 301 301 303 305 306 306 307 306 304 303 302 300 300 300 299 298
218 215 228 238 240 242 248 242 243 250 250 251 255 260 262 266 270 275 279 282 283 285 286 283 283 284 287 289 292 297 302 301 301 304 305 305 306 306 306 304 303 302 301 301 300 299 299 299 300
223 222 233 241 244 243 244 244 247 251 251 252 256 259 262 268 272 278 280 279 278 282 283 284 284 289 292 296 302 303 303 305 307 308 309 309 307 306 305 304 303 304 304 304 304 303 302 303 303
218 220 229 238 248 252 247 247 252 253 252 253 255 259 266 269 274 275 273 276 280 281 281 286 293 295 300 302 301 302 305 308 309 309 308 308 307 306 306 306 306 306 305 304 303 303 303 302 300
222 229 234 241 247 248 250 255 251 249 249 250 254 260 264 267 268 270 276 279 279 280 288 292 294 296 297 299 303 305 306 308 310 310 309 308 307 306 306 305 304 303 303 304 304 304 303 301 300
227 228 232 239 243 250 253 251 251 241 244 249 254 258 262 267 273 277 278 274 277 285 289 290 294 298 302 303 304 308 310 310 310 310 308 308 307 305 304 303 305 306 306 305 304 303 303 302 300